{"data":{"norad_id":64528,"epoch":"2026-09-21T20:15:31.157568Z","epoch_age_seconds":66104,"freshness":"FRESH","line1":"1 64528U 25135A   26264.84411062  .00005712  00000+0  22937-3 0  9997","line2":"2 64528  97.4708  19.7652 0004444 189.0895 171.0263 15.25353771 69619","mean_motion":15.25353771,"eccentricity":0.0004444,"inclination_deg":97.4708,"raan_deg":19.7652,"arg_perigee_deg":189.0895,"mean_anomaly_deg":171.0263,"bstar":0.00022937,"rev_number":6961,"period_min":94.404329498983,"perigee_km":486.67125569211,"apogee_km":492.77540995593,"semimajor_km":6867.860332824,"source":"CELESTRAK","updated_at":"2026-09-22T09:00:29.814513Z"}}